Location: Moena
(46.3667°N, 11.6500°E)
Time: 16:07:33
(UTC+00:00)

SeaSat 1 - Pass Details

Date: 03 March 2021
Orbit: 744 x 747 km, 108.0° (Epoch: 17 April)

Event Time Altitude Azimuth Distance (km) Brightness Sun altitude
Rises 19:33:14 0° 20° (NNE) 3,201 5.7 -26.4°
Reaches altitude 10° 19:35:43 10° 10° (N) 2,274 5.0 -26.8°
Maximum altitude 19:40:00 30° 311° (NW) 1,312 4.2 -27.5°
Drops below altitude 10° 19:44:16 10° 250° (WSW) 2,264 5.5 -28.2°
Sets 19:46:44 0° 240° (WSW) 3,185 6.2 -28.6°
